Location: Northcutt
(34.7304°N, 84.4305°W)
Time: 18:56:57
(UTC+00:00)

Transit 2A Rocket - Pass Details

Date: 11 October 2022
Orbit: 589 x 911 km, 66.7° (Epoch: 03 December)

Event Time Altitude Azimuth Distance (km) Brightness Sun altitude
Rises 18:30:01 0° 332° (NNW) 3,089 7.9 45.3°
Reaches altitude 10° 18:32:16 10° 332° (NNW) 2,216 7.2 45.1°
Maximum altitude 18:37:21 84° 245° (WSW) 783 6.0 44.6°
Drops below altitude 10° 18:42:56 10° 157° (SSE) 2,420 8.2 44.1°
Sets 18:45:28 0° 157° (SSE) 3,395 8.7 43.9°
